Location: PSU-Greenbush Astrophysical Observatory
(37.5140°N, 94.9880°W)
Time: 22:45:20
(UTC-05:00)

BEESAT - Pass Details

Date: 01 March 2020
Orbit: 700 x 709 km, 98.6° (Epoch: 04 April)

Event Time Altitude Azimuth Distance (km) Brightness Sun altitude
Rises 05:31:14 0° 174° (S) 3,082 ? -16.5°
Reaches altitude 10° 05:33:30 10° 177° (S) 2,166 ? -16.1°
Maximum altitude 05:38:11 62° 258° (WSW) 789 ? -15.1°
Drops below altitude 10° 05:42:55 10° 340° (NNW) 2,176 ? -14.2°
Sets 05:45:12 0° 344° (NNW) 3,097 ? -13.7°
